{"data":{"norad_id":68277,"intl_designator":"2026-055R","name":"STARLINK-36989","alt_names":[],"object_type":"PAYLOAD","status":"ACTIVE","operator":null,"country":"US","launch_date":"2026-03-19","launch_site_code":"AFETR","launch_vehicle":null,"mission":null,"orbit_class":"UNKNOWN","rcs_meters":null,"size_class":null,"mass_kg":null,"dimensions":null,"purposes":["comms"],"wikipedia_slug":null,"has_3d_model":false,"image_url":null,"decayed_at":null,"tle_current":{"epoch":"2026-05-24T21:37:00.323616Z","epoch_age_seconds":79773,"freshness":"FRESH","line1":"1 68277U 26055R   26144.90069819  .00030636  00000+0  91410-3 0  9992","line2":"2 68277  53.1593 324.2331 0000940  70.8812 289.2292 15.34401424 11616","mean_motion":15.34401424,"eccentricity":9.4e-5,"inclination_deg":53.1593,"raan_deg":324.2331,"arg_perigee_deg":70.8812,"mean_anomaly_deg":289.2292,"bstar":0.0009141,"rev_number":1161,"period_min":93.847670985999,"perigee_km":462.05596919755,"apogee_km":463.34204636702,"semimajor_km":6840.8360077823,"source":"CELESTRAK","updated_at":"2026-05-25T13:38:21.893177Z"}}}